カタログに戻る

ONEWEB-0502

運用中通信PO
NORAD 54120·PAYLOAD·🇬🇧 United Kingdom

打ち上げ Oct 22, 2022 から Satish Dhawan Space Centre

Loading…

次のパス (今後24時間)

TLE

最新Source: CelesTrak SupGP

元期: Sep 14, 2026, 18:58 UTC

1 54120C 22138H   26257.79080278 -.00000279  00000+0 -69818-3 0  2572
2 54120  87.9115 287.1105 0002145  88.8523  22.3973 13.19727046    12

AllMySatでONEWEB-0502をリアルタイム追跡

Download on the App Store